WMT439 EDDF-EGLL

Flight info

Callsign WMT439
Flight time 1h 8m
Altitude 340
Route OBOK3W OBOKA Z29 TORNU DCT ABNED L980 LOGAN LOGA2H
Aircraft A320/M-V/N

Departure

Time 2026-05-05 12:39
Airport Frankfurt Main Airport (EDDF)

Arrival

Time 2026-05-05 13:47
Airport London Heathrow Airport (EGLL)
Time Latitude Longitude Altitude Speed Heading
2026-05-05 12:11 50.05049 8.58657 359 ft 0 kts 322°
2026-05-05 12:21 50.05049 8.58658 359 ft 0 kts 322°
2026-05-05 12:29 50.05045 8.58663 365 ft 2 kts 322°
2026-05-05 12:29 50.05031 8.58679 367 ft 2 kts 322°
2026-05-05 12:30 50.05017 8.58696 365 ft 3 kts 322°
2026-05-05 12:30 50.05003 8.58712 361 ft 3 kts 322°
2026-05-05 12:30 50.04989 8.58728 361 ft 2 kts 302°
2026-05-05 12:30 50.04986 8.58752 361 ft 2 kts 234°
2026-05-05 12:31 50.04987 8.58753 361 ft 0 kts 234°
2026-05-05 12:32 50.04986 8.58751 361 ft 1 kts 234°
2026-05-05 12:32 50.04982 8.58744 361 ft 1 kts 234°
2026-05-05 12:33 50.04980 8.58740 361 ft 1 kts 234°
2026-05-05 12:33 50.04973 8.58723 361 ft 3 kts 234°
2026-05-05 12:33 50.04954 8.58692 361 ft 5 kts 217°
2026-05-05 12:33 50.04913 8.58676 361 ft 7 kts 176°
2026-05-05 12:34 50.04856 8.58702 365 ft 10 kts 160°
2026-05-05 12:34 50.04802 8.58732 362 ft 9 kts 160°
2026-05-05 12:34 50.04760 8.58756 363 ft 5 kts 160°
2026-05-05 12:34 50.04750 8.58761 363 ft 2 kts 160°
2026-05-05 12:35 50.04731 8.58767 363 ft 4 kts 173°
2026-05-05 12:35 50.04697 8.58766 362 ft 6 kts 185°
2026-05-05 12:35 50.04650 8.58757 362 ft 8 kts 187°
2026-05-05 12:35 50.04597 8.58729 367 ft 8 kts 213°
2026-05-05 12:36 50.04553 8.58675 366 ft 8 kts 216°
2026-05-05 12:36 50.04537 8.58664 370 ft 0 kts 195°
2026-05-05 12:36 50.04527 8.58663 372 ft 10 kts 186°
2026-05-05 12:36 50.04405 8.58636 368 ft 21 kts 186°
2026-05-05 12:37 50.04316 8.58622 363 ft 0 kts 186°
2026-05-05 12:37 50.04311 8.58621 363 ft 3 kts 186°
2026-05-05 12:37 50.04263 8.58600 365 ft 12 kts 210°
2026-05-05 12:37 50.04220 8.58580 368 ft 9 kts 172°
2026-05-05 12:38 50.04159 8.58590 373 ft 31 kts 177°
2026-05-05 12:38 50.04018 8.58541 371 ft 19 kts 210°
2026-05-05 12:38 50.03922 8.58298 371 ft 55 kts 246°
2026-05-05 12:38 50.03688 8.57296 361 ft 137 kts 249°
2026-05-05 12:39 50.03284 8.55595 451 ft 189 kts 251°
2026-05-05 12:39 50.02849 8.53522 791 ft 205 kts 251°
2026-05-05 12:39 50.02383 8.51475 1504 ft 201 kts 249°
2026-05-05 12:39 50.01717 8.49546 2116 ft 205 kts 229°
2026-05-05 12:40 50.00560 8.48270 2738 ft 210 kts 199°
2026-05-05 12:40 49.99126 8.47806 3535 ft 209 kts 189°
2026-05-05 12:40 49.97695 8.47465 4412 ft 208 kts 188°
2026-05-05 12:40 49.96259 8.47130 5229 ft 210 kts 192°
2026-05-05 12:41 49.94790 8.46500 5754 ft 230 kts 196°
2026-05-05 12:41 49.93207 8.45748 6381 ft 243 kts 200°
2026-05-05 12:41 49.91694 8.44486 6857 ft 250 kts 217°
2026-05-05 12:41 49.90502 8.42534 7006 ft 252 kts 236°
2026-05-05 12:42 49.89608 8.40153 7771 ft 255 kts 240°
2026-05-05 12:42 49.88940 8.37585 8731 ft 259 kts 253°
2026-05-05 12:42 49.88657 8.34754 9346 ft 277 kts 267°
2026-05-05 12:42 49.88781 8.31697 9947 ft 289 kts 273°
2026-05-05 12:43 49.89063 8.28517 10371 ft 310 kts 282°
2026-05-05 12:43 49.89833 8.25312 10901 ft 324 kts 296°
2026-05-05 12:43 49.91081 8.22359 11633 ft 330 kts 305°
2026-05-05 12:43 49.92459 8.19480 12429 ft 334 kts 305°
2026-05-05 12:44 49.93871 8.16596 13164 ft 339 kts 309°
2026-05-05 12:44 49.95583 8.14023 13870 ft 344 kts 318°
2026-05-05 12:44 49.97408 8.11594 14546 ft 348 kts 318°
2026-05-05 12:44 49.99257 8.09128 15201 ft 352 kts 318°
2026-05-05 12:45 50.01099 8.06668 15830 ft 356 kts 317°
2026-05-05 12:45 50.02982 8.04149 16455 ft 359 kts 317°
2026-05-05 12:45 50.04871 8.01572 17070 ft 362 kts 313°
2026-05-05 12:45 50.06408 7.98473 17669 ft 363 kts 300°
2026-05-05 12:46 50.07774 7.95150 18285 ft 366 kts 300°
2026-05-05 12:46 50.09141 7.91783 18835 ft 370 kts 300°
2026-05-05 12:46 50.10515 7.88374 19386 ft 373 kts 300°
2026-05-05 12:46 50.11898 7.84938 19956 ft 376 kts 300°
2026-05-05 12:47 50.13293 7.81472 20501 ft 379 kts 300°
2026-05-05 12:47 50.14702 7.77973 21024 ft 383 kts 300°
2026-05-05 12:47 50.16124 7.74447 21508 ft 386 kts 300°
2026-05-05 12:47 50.17558 7.70892 22052 ft 388 kts 300°
2026-05-05 12:48 50.18999 7.67313 22579 ft 391 kts 300°
2026-05-05 12:48 50.20450 7.63701 23099 ft 394 kts 300°
2026-05-05 12:48 50.21910 7.60062 23572 ft 397 kts 300°
2026-05-05 12:48 50.23377 7.56396 24005 ft 400 kts 300°
2026-05-05 12:49 50.24855 7.52701 24447 ft 402 kts 299°
2026-05-05 12:49 50.26338 7.48983 24893 ft 404 kts 299°
2026-05-05 12:49 50.27826 7.45242 25322 ft 406 kts 299°
2026-05-05 12:49 50.29321 7.41484 25750 ft 409 kts 298°
2026-05-05 12:50 50.30807 7.37749 26185 ft 411 kts 298°
2026-05-05 12:50 50.32317 7.33939 26617 ft 413 kts 298°
2026-05-05 12:50 50.33832 7.30111 27042 ft 415 kts 298°
2026-05-05 12:50 50.35355 7.26265 27460 ft 417 kts 298°
2026-05-05 12:51 50.36887 7.22397 27877 ft 419 kts 297°
2026-05-05 12:51 50.38425 7.18504 28287 ft 421 kts 297°
2026-05-05 12:51 50.39969 7.14586 28682 ft 423 kts 297°
2026-05-05 12:51 50.41516 7.10653 29073 ft 425 kts 297°
2026-05-05 12:52 50.43074 7.06683 29472 ft 428 kts 297°
2026-05-05 12:52 50.44634 7.02703 29916 ft 429 kts 297°
2026-05-05 12:52 50.46197 6.98708 30348 ft 430 kts 297°
2026-05-05 12:52 50.47767 6.94693 30728 ft 432 kts 297°
2026-05-05 12:53 50.49342 6.90661 31084 ft 435 kts 297°
2026-05-05 12:53 50.50925 6.86602 31434 ft 437 kts 296°
2026-05-05 12:53 50.52511 6.82521 31765 ft 438 kts 296°
2026-05-05 12:53 50.54089 6.78467 31834 ft 429 kts 296°
2026-05-05 12:54 50.57080 6.70801 31843 ft 399 kts 296°
2026-05-05 12:54 50.58510 6.67116 31841 ft 391 kts 296°
2026-05-05 12:55 50.61330 6.59789 31850 ft 388 kts 295°
2026-05-05 12:55 50.64097 6.52563 31870 ft 387 kts 296°
2026-05-05 12:56 50.66878 6.45302 31852 ft 387 kts 296°
2026-05-05 12:56 50.69660 6.38039 31863 ft 387 kts 296°
2026-05-05 12:57 50.72435 6.30778 31894 ft 386 kts 296°
2026-05-05 12:57 50.75205 6.23509 31903 ft 386 kts 296°
2026-05-05 12:58 50.77961 6.16251 31911 ft 385 kts 296°
2026-05-05 12:58 50.80711 6.08984 31923 ft 385 kts 296°
2026-05-05 12:59 50.83458 6.01701 31902 ft 386 kts 296°
2026-05-05 12:59 50.86210 5.94386 31899 ft 387 kts 296°
2026-05-05 13:00 50.90323 5.83434 31908 ft 388 kts 296°
2026-05-05 13:01 50.95815 5.68721 31916 ft 388 kts 295°
2026-05-05 13:01 50.98553 5.61334 31905 ft 389 kts 295°
2026-05-05 13:02 51.01300 5.53924 31888 ft 390 kts 295°
2026-05-05 13:02 51.04055 5.46470 31893 ft 391 kts 295°
2026-05-05 13:03 51.06806 5.38991 31895 ft 392 kts 295°
2026-05-05 13:03 51.09554 5.31489 31901 ft 393 kts 295°
2026-05-05 13:04 51.12288 5.24023 31906 ft 393 kts 295°
2026-05-05 13:04 51.15039 5.16512 31911 ft 393 kts 295°
2026-05-05 13:05 51.17786 5.08974 31910 ft 394 kts 295°
2026-05-05 13:05 51.20531 5.01406 31913 ft 394 kts 295°
2026-05-05 13:06 51.23273 4.93828 31925 ft 395 kts 295°
2026-05-05 13:06 51.26015 4.86252 31937 ft 394 kts 295°
2026-05-05 13:07 51.28742 4.78677 31940 ft 393 kts 295°
2026-05-05 13:07 51.31453 4.71098 31963 ft 393 kts 295°
2026-05-05 13:08 51.33701 4.64796 31946 ft 393 kts 295°
2026-05-05 13:08 51.36407 4.57219 31942 ft 393 kts 295°
2026-05-05 13:09 51.39118 4.49615 31942 ft 393 kts 294°
2026-05-05 13:09 51.41814 4.42004 31936 ft 393 kts 294°
2026-05-05 13:10 51.44498 4.34382 31931 ft 393 kts 294°
2026-05-05 13:10 51.47192 4.26759 31931 ft 393 kts 294°
2026-05-05 13:11 51.49927 4.18956 31924 ft 413 kts 294°
2026-05-05 13:11 51.51351 4.14869 31921 ft 425 kts 294°
2026-05-05 13:11 51.52813 4.10684 31919 ft 436 kts 295°
2026-05-05 13:12 51.55835 4.02047 31922 ft 456 kts 295°
2026-05-05 13:12 51.58990 3.93012 31918 ft 463 kts 295°
2026-05-05 13:13 51.62108 3.84072 31941 ft 456 kts 295°
2026-05-05 13:13 51.65186 3.75142 31931 ft 456 kts 295°
2026-05-05 13:14 51.68255 3.66197 31948 ft 456 kts 295°
2026-05-05 13:14 51.71324 3.57231 31948 ft 457 kts 295°
2026-05-05 13:15 51.74392 3.48267 31956 ft 457 kts 295°
2026-05-05 13:15 51.77459 3.39288 31980 ft 456 kts 296°
2026-05-05 13:16 51.80503 3.30305 31986 ft 455 kts 296°
2026-05-05 13:16 51.83429 3.21321 31981 ft 452 kts 289°
2026-05-05 13:17 51.84299 3.16486 31980 ft 447 kts 277°
2026-05-05 13:17 51.84516 3.11516 31977 ft 442 kts 265°
2026-05-05 13:17 51.83914 3.01658 31972 ft 440 kts 262°
2026-05-05 13:18 51.83269 2.91809 31969 ft 440 kts 261°
2026-05-05 13:18 51.82618 2.81974 31982 ft 440 kts 261°
2026-05-05 13:19 51.81957 2.72154 31978 ft 439 kts 261°
2026-05-05 13:19 51.81285 2.62347 31979 ft 439 kts 261°
2026-05-05 13:20 51.80611 2.52547 31975 ft 439 kts 261°
2026-05-05 13:20 51.79936 2.42819 31978 ft 439 kts 261°
2026-05-05 13:21 51.79238 2.33037 31616 ft 436 kts 261°
2026-05-05 13:21 51.78885 2.28182 31368 ft 435 kts 261°
2026-05-05 13:21 51.78530 2.23328 30966 ft 435 kts 261°
2026-05-05 13:22 51.78193 2.18487 30500 ft 434 kts 262°
2026-05-05 13:22 51.77898 2.13647 30027 ft 432 kts 262°
2026-05-05 13:22 51.77626 2.08818 29531 ft 430 kts 263°
2026-05-05 13:22 51.77364 2.04018 29086 ft 428 kts 262°
2026-05-05 13:23 51.77099 1.99242 28634 ft 426 kts 262°
2026-05-05 13:23 51.76825 1.94496 28214 ft 424 kts 262°
2026-05-05 13:23 51.76546 1.89772 27788 ft 421 kts 262°
2026-05-05 13:23 51.76260 1.85079 27340 ft 419 kts 262°
2026-05-05 13:24 51.75971 1.80411 26900 ft 417 kts 262°
2026-05-05 13:24 51.75681 1.75767 26443 ft 415 kts 262°
2026-05-05 13:24 51.75390 1.71140 25995 ft 414 kts 262°
2026-05-05 13:24 51.75098 1.66532 25524 ft 412 kts 262°
2026-05-05 13:25 51.74806 1.61940 25048 ft 410 kts 262°
2026-05-05 13:25 51.74517 1.57366 24475 ft 410 kts 262°
2026-05-05 13:25 51.74229 1.52798 23847 ft 410 kts 262°
2026-05-05 13:25 51.73939 1.48223 23215 ft 409 kts 262°
2026-05-05 13:26 51.73655 1.43770 22968 ft 402 kts 262°
2026-05-05 13:26 51.73364 1.39285 22973 ft 402 kts 262°
2026-05-05 13:26 51.73072 1.34805 22978 ft 402 kts 263°
2026-05-05 13:26 51.72778 1.30321 22977 ft 402 kts 262°
2026-05-05 13:27 51.72480 1.25839 22980 ft 402 kts 262°
2026-05-05 13:27 51.72180 1.21354 22977 ft 402 kts 262°
2026-05-05 13:27 51.71879 1.16877 22977 ft 402 kts 262°
2026-05-05 13:27 51.71577 1.12392 22977 ft 402 kts 262°
2026-05-05 13:28 51.71275 1.07916 22972 ft 402 kts 262°
2026-05-05 13:28 51.70969 1.03439 22975 ft 402 kts 262°
2026-05-05 13:28 51.70660 0.98962 22975 ft 402 kts 262°
2026-05-05 13:28 51.70350 0.94488 22970 ft 400 kts 263°
2026-05-05 13:29 51.70045 0.90045 22976 ft 398 kts 263°
2026-05-05 13:29 51.69740 0.85612 22974 ft 397 kts 262°
2026-05-05 13:29 51.69449 0.81182 22973 ft 397 kts 263°
2026-05-05 13:29 51.69143 0.76763 22975 ft 397 kts 263°
2026-05-05 13:30 51.68824 0.72346 22977 ft 397 kts 262°
2026-05-05 13:30 51.68499 0.67918 22653 ft 399 kts 262°
2026-05-05 13:30 51.68171 0.63443 21809 ft 402 kts 262°
2026-05-05 13:30 51.67849 0.59033 21547 ft 392 kts 262°
2026-05-05 13:31 51.67531 0.54704 21093 ft 387 kts 263°
2026-05-05 13:31 51.67219 0.50421 20596 ft 383 kts 263°
2026-05-05 13:31 51.66912 0.46175 20091 ft 380 kts 263°
2026-05-05 13:31 51.66606 0.41965 19611 ft 377 kts 263°
2026-05-05 13:32 51.66303 0.37792 19093 ft 374 kts 263°
2026-05-05 13:32 51.65999 0.33642 18577 ft 372 kts 263°
2026-05-05 13:32 51.65691 0.29511 18035 ft 371 kts 263°
2026-05-05 13:32 51.65381 0.25401 17461 ft 369 kts 263°
2026-05-05 13:33 51.65070 0.21320 16915 ft 366 kts 263°
2026-05-05 13:33 51.64759 0.17269 16385 ft 363 kts 263°
2026-05-05 13:33 51.64296 0.13319 15928 ft 359 kts 256°
2026-05-05 13:33 51.63653 0.09401 15266 ft 362 kts 255°
2026-05-05 13:34 51.62938 0.05494 14537 ft 367 kts 253°
2026-05-05 13:34 51.62179 0.01557 13815 ft 370 kts 253°
2026-05-05 13:34 51.61509 -0.01873 13132 ft 371 kts 253°
2026-05-05 13:34 51.60728 -0.05897 12337 ft 372 kts 253°
2026-05-05 13:35 51.59978 -0.09827 11582 ft 373 kts 253°
2026-05-05 13:35 51.59227 -0.13825 10830 ft 373 kts 254°
2026-05-05 13:35 51.58484 -0.17813 10101 ft 372 kts 254°
2026-05-05 13:35 51.57745 -0.21787 9298 ft 371 kts 254°
2026-05-05 13:36 51.57006 -0.25749 8518 ft 369 kts 254°
2026-05-05 13:36 51.56268 -0.29688 7750 ft 367 kts 253°
2026-05-05 13:36 51.55531 -0.33606 7166 ft 361 kts 254°
2026-05-05 13:36 51.54818 -0.37400 6811 ft 350 kts 254°
2026-05-05 13:37 51.54128 -0.41067 6621 ft 337 kts 253°
2026-05-05 13:37 51.53460 -0.44596 6460 ft 325 kts 253°
2026-05-05 13:37 51.52809 -0.48014 6284 ft 315 kts 253°
2026-05-05 13:37 51.52177 -0.51328 6098 ft 306 kts 253°
2026-05-05 13:38 51.51562 -0.54548 5917 ft 297 kts 254°
2026-05-05 13:38 51.50965 -0.57679 5727 ft 289 kts 254°
2026-05-05 13:38 51.50384 -0.60715 5539 ft 281 kts 254°
2026-05-05 13:38 51.49823 -0.63643 5372 ft 274 kts 253°
2026-05-05 13:39 51.49263 -0.66567 5176 ft 267 kts 254°
2026-05-05 13:39 51.48730 -0.69347 5004 ft 262 kts 254°
2026-05-05 13:39 51.48202 -0.72110 4831 ft 256 kts 253°
2026-05-05 13:39 51.47685 -0.74802 4644 ft 249 kts 254°
2026-05-05 13:40 51.47187 -0.77422 4460 ft 244 kts 255°
2026-05-05 13:40 51.46709 -0.80000 4280 ft 237 kts 255°
2026-05-05 13:40 51.46247 -0.82501 4095 ft 231 kts 255°
2026-05-05 13:40 51.45797 -0.84938 3914 ft 225 kts 255°
2026-05-05 13:41 51.45015 -0.87029 3723 ft 220 kts 217°
2026-05-05 13:41 51.43611 -0.87752 3573 ft 215 kts 172°
2026-05-05 13:41 51.42309 -0.86798 3486 ft 209 kts 128°
2026-05-05 13:41 51.41727 -0.84734 3490 ft 198 kts 89°
2026-05-05 13:42 51.42032 -0.82747 3492 ft 177 kts 54°
2026-05-05 13:42 51.42714 -0.81178 3499 ft 173 kts 52°
2026-05-05 13:42 51.43428 -0.79546 3505 ft 182 kts 53°
2026-05-05 13:42 51.44160 -0.77865 3508 ft 184 kts 53°
2026-05-05 13:43 51.44889 -0.76186 3500 ft 183 kts 53°
2026-05-05 13:43 51.45622 -0.74493 3240 ft 189 kts 53°
2026-05-05 13:43 51.46396 -0.72708 2793 ft 199 kts 53°
2026-05-05 13:43 51.47180 -0.70893 2584 ft 195 kts 54°
2026-05-05 13:44 51.47654 -0.68907 2495 ft 191 kts 82°
2026-05-05 13:44 51.47662 -0.66803 2489 ft 187 kts 88°
2026-05-05 13:44 51.47672 -0.64730 2173 ft 191 kts 86°
2026-05-05 13:44 51.47683 -0.62612 1901 ft 185 kts 86°
2026-05-05 13:45 51.47692 -0.60630 1636 ft 171 kts 87°
2026-05-05 13:45 51.47700 -0.58821 1410 ft 155 kts 86°
2026-05-05 13:45 51.47708 -0.57151 1201 ft 147 kts 88°
2026-05-05 13:45 51.47716 -0.55535 1025 ft 142 kts 88°
2026-05-05 13:46 51.47724 -0.53938 821 ft 143 kts 86°
2026-05-05 13:46 51.47731 -0.52357 611 ft 140 kts 88°
2026-05-05 13:46 51.47738 -0.50789 420 ft 139 kts 88°
2026-05-05 13:46 51.47745 -0.49243 226 ft 138 kts 86°
2026-05-05 13:47 51.47756 -0.47703 106 ft 136 kts 85°
2026-05-05 13:47 51.47762 -0.46406 90 ft 96 kts 92°
2026-05-05 13:47 51.47763 -0.45801 84 ft 35 kts 88°
2026-05-05 13:47 51.47756 -0.45549 87 ft 18 kts 107°
2026-05-05 13:48 51.47673 -0.45468 86 ft 11 kts 179°
2026-05-05 13:48 51.47647 -0.45467 86 ft 0 kts 179°